Tracking 19281 objects as of 16-Nov-2018
HD Live streaming from Space Station
objects crossing your sky now

GLOBALSTAR M029

Track GLOBALSTAR M029 now!
10-day predictions
GLOBALSTAR M029 is classified as:


NORAD ID: 25963
Int'l Code: 1999-062C
Perigee: 1,685.8 km
Apogee: 1,691.7 km
Inclination: 52.0 °
Period: 120.0 minutes
Semi major axis: 8059 km
RCS: 2.8434 m2 (large)
Launch date: November 22, 1999
Source: Globalstar (GLOB)
Launch site: TYURATAM MISSILE AND SPACE COMPLEX (TTMTR)
aabbcc
Your satellite tracking list
Your tracking list is empty




NASA's NSSDC Master Catalog

Two Line Element Set (TLE):
1 25963U 99062C   18319.48735639 -.00000085  00000-0  17251-4 0  9992
2 25963  51.9782 125.0037 0003666  78.4717 314.3469 11.99835198880394
Source of the keplerian elements: AFSPC